Patterson, LA

2:08 AM CST on December 10, 2019 (GMT -0600)
Williams Memorial

Weather History for KPTN - November, 2019

Change the Weather History Date:

Tuesday, November 12, 2019

  Actual Average Record
Temperature  
Mean Temperature 50 °F -  
Max Temperature 66 °F 69 °F 82 °F (2003)
Min Temperature 32 °F 51 °F 41 °F (2011)
Degree Days  
Heating Degree Days 16    
Moisture  
Dew Point 35 °F    
Average Humidity 75    
Maximum Humidity 100    
Minimum Humidity 43    
Precipitation  
Precipitation 0.03 in - - ()
Sea Level Pressure  
Sea Level Pressure 30.25 in    
Wind  
Wind Speed 16 mph (North)    
Max Wind Speed 23 mph    
Max Gust Speed 37 mph    
Visibility 10 miles    
Events Rain    
Averages and records for this station are not official NWS values.
T = Trace of Precipitation, MM = Missing Value Source: NWS Daily Summary

Daily Weather History Graph

Daily Weather History Graph

Search for Another Location

Airport or City:

Astronomy

Nov. 12, 2019 Rise Set
Actual Time 6:27 AM CST 5:11 PM CST
Civil Twilight 6:02 AM CST 5:36 PM CST
Nautical Twilight 5:33 AM CST 6:05 PM CST
Astronomical Twilight 5:05 AM CST 6:33 PM CST
Moon 5:36 PM CST (11/12) 6:22 AM CST (11/12)
Length of Visible Light 11h 34m
Length of Day
10h 44m
Full, 100% of the Moon is Illuminated
Nov 12
Full
Nov 19
Last Quarter
Nov 26
New
Dec 4
First Quarter
Dec 11
Full

Hourly Weather History & Observations

Time (CST) Temp. Windchill Dew Point Humidity Pressure Visibility Wind Dir Wind Speed Gust Speed Precip Events Conditions
12:00 AM 66.2 °F - 66.2 °F 100% 30.04 in 9.0 mi WNW 12.7 mph - 0.01 in Rain Light Rain
12:36 AM 53.6 °F - 53.6 °F 100% 30.08 in 10.0 mi NNW 11.5 mph 26.5 mph 0.02 in   Overcast
1:56 AM 50.0 °F - 46.9 °F 89% 30.12 in 10.0 mi North 13.8 mph - N/A   Overcast
2:30 AM 48.2 °F - 44.6 °F 87% 30.13 in 10.0 mi NNE 16.1 mph 27.6 mph N/A   Overcast
2:44 AM 48.2 °F - 44.6 °F 87% 30.13 in 10.0 mi North 20.7 mph 28.8 mph N/A   Overcast
3:15 AM 46.4 °F 38.5 °F 44.6 °F 93% 30.14 in 10.0 mi North 21.9 mph 29.9 mph 0.00 in   Overcast
3:39 AM 46.4 °F 40.4 °F 42.8 °F 87% 30.16 in 10.0 mi North 13.8 mph 26.5 mph 0.00 in Rain Light Rain
4:31 AM 44.6 °F 37.8 °F 42.8 °F 93% 30.17 in 10.0 mi North 15.0 mph 29.9 mph 0.01 in Rain Light Rain
4:56 AM 44.1 °F 36.8 °F 42.1 °F 93% 30.20 in 10.0 mi North 16.1 mph 24.2 mph 0.01 in Rain Light Rain
5:41 AM 42.8 °F 33.5 °F 39.2 °F 87% 30.23 in 10.0 mi North 23.0 mph 28.8 mph 0.01 in Rain Light Rain
5:56 AM 41.0 °F 32.8 °F 39.0 °F 93% 30.24 in 10.0 mi North 16.1 mph 28.8 mph 0.02 in Rain Light Rain
6:56 AM 41.0 °F 33.1 °F 37.0 °F 86% 30.25 in 10.0 mi NNE 15.0 mph 29.9 mph 0.00 in   Overcast
7:09 AM 39.2 °F 29.3 °F 37.4 °F 93% 30.25 in 10.0 mi North 20.7 mph 36.8 mph N/A   Overcast
7:56 AM 39.0 °F 29.9 °F 37.0 °F 93% 30.28 in 10.0 mi North 17.3 mph 26.5 mph 0.00 in   Overcast
8:56 AM 39.0 °F 29.0 °F 34.0 °F 82% 30.32 in 10.0 mi NNE 20.7 mph 29.9 mph N/A   Overcast
9:56 AM 39.9 °F 31.4 °F 35.1 °F 83% 30.33 in 10.0 mi NNE 16.1 mph 23.0 mph N/A   Overcast
10:30 AM 41.0 °F 32.8 °F 33.8 °F 76% 30.31 in 10.0 mi NNE 16.1 mph 25.3 mph N/A   Partly Cloudy
10:56 AM 44.1 °F 36.5 °F 35.1 °F 71% 30.31 in 10.0 mi North 17.3 mph 26.5 mph N/A   Mostly Cloudy
11:20 AM 44.6 °F 36.4 °F 30.2 °F 57% 30.30 in 10.0 mi NNE 20.7 mph 27.6 mph N/A   Partly Cloudy
11:56 AM 45.0 °F 38.5 °F 30.9 °F 58% 30.31 in 10.0 mi North 13.8 mph 26.5 mph N/A   Clear
12:56 PM 46.9 °F - 28.9 °F 50% 30.29 in 10.0 mi North 17.3 mph 26.5 mph N/A   Clear
1:56 PM 48.9 °F - 28.0 °F 44% 30.27 in 10.0 mi North 18.4 mph 26.5 mph N/A   Clear
2:56 PM 48.9 °F - 27.0 °F 43% 30.27 in 10.0 mi NNE 18.4 mph 25.3 mph N/A   Clear
3:56 PM 45.0 °F 38.9 °F 26.1 °F 48% 30.29 in 10.0 mi North 12.7 mph 26.5 mph N/A   Clear
5:56 PM 41.0 °F 33.5 °F 25.0 °F 53% 30.32 in 10.0 mi North 13.8 mph 20.7 mph N/A   Clear
6:56 PM 39.0 °F 31.0 °F 24.1 °F 55% 30.33 in 10.0 mi North 13.8 mph - N/A   Clear
7:56 PM 37.0 °F 29.8 °F 24.1 °F 59% 30.35 in 10.0 mi North 10.4 mph - N/A   Clear
8:56 PM 36.0 °F 27.1 °F 24.1 °F 62% 30.36 in 10.0 mi NNE 13.8 mph - N/A   Clear
9:56 PM 34.0 °F 23.4 °F 23.0 °F 64% 30.36 in 10.0 mi NNE 17.3 mph 21.9 mph N/A   Clear
10:56 PM 33.1 °F 22.6 °F 23.0 °F 66% 30.35 in 10.0 mi NNE 16.1 mph 21.9 mph N/A   Clear
11:56 PM 32.0 °F 20.8 °F 24.1 °F 73% 30.35 in 10.0 mi NNE 17.3 mph 21.9 mph N/A   Clear